{"data":{"norad_id":41549,"intl_designator":"2016-030A","name":"GSAT0211 (GALILEO 14)","alt_names":[],"object_type":"PAYLOAD","status":"ACTIVE","operator":null,"country":"ESA","launch_date":"2016-05-24","launch_site_code":"FRGUI","launch_vehicle":null,"mission":null,"orbit_class":"UNKNOWN","rcs_meters":6.5968,"size_class":null,"mass_kg":null,"dimensions":null,"purposes":["earth_obs","nav"],"wikipedia_slug":null,"has_3d_model":false,"image_url":null,"decayed_at":null,"tle_current":{"epoch":"2026-05-23T03:50:15.655488Z","epoch_age_seconds":244116,"freshness":"STALE","line1":"1 41549U 16030A   26143.15990342 -.00000014  00000+0  00000+0 0  9996","line2":"2 41549  55.1018 222.3833 0002676 335.5312  24.5109  1.70474082 62249","mean_motion":1.70474082,"eccentricity":0.0002676,"inclination_deg":55.1018,"raan_deg":222.3833,"arg_perigee_deg":335.5312,"mean_anomaly_deg":24.5109,"bstar":0,"rev_number":6224,"period_min":844.70318485129,"perigee_km":23214.252522393,"apogee_km":23230.094608608,"semimajor_km":29600.310565501,"source":"CELESTRAK","updated_at":"2026-05-25T13:38:24.056138Z"}}}